Flag Weather past 2 weeks in Namur, Belgium

Now
50 °F

Passing clouds.


Feels Like: 47 °F
Forecast: 38 / 50 °F
Wind: 8 mph from Southeast

Location: Charleroi / Gosselies

Current Time: Nov 28, 2014 at 9:41:00 AM

Latest Report: Nov 28, 2014 at 8:50 AM


Visibility: N/A

Pressure: 29.65 "Hg

Humidity: 76%

Dew point: 43 °F

Location of NamurLocation

Historic Weather in Namur — Graph

°F

Namur temperature yesterday

Maximum temperature yesterday: 50 °F (at 10:50 AM)
Minimum temperature yesterday: 46 °F (at 7:20 AM)
Average temperature yesterday: 48 °F

Past Weeks' High & Low Weather Summary

 TemperatureHumidityPressure
High59 °F (Nov 23, 12:50 PM)100% (Nov 13, 8:50 AM)30.33 "Hg (Nov 13, 8:50 AM)
Low34 °F (Nov 21, 3:20 AM)71% (Nov 19, 1:20 PM)29.50 "Hg (Nov 16, 2:20 PM)
Average46 °F90%29.90 "Hg
* Reported Nov 13 8:20 AM — Nov 28 8:20 AM, Namur, Weather by CustomWeather, © 2014

Note: Actual official high and low records may vary slightly from our data, if they occured in-between our weather recording intervals... More about our weather records

Advertising

Namur weather history for previous 24 hours

 ConditionsComfort  
Time TempWeatherWind HumidityBarometerVisibility
8:20 AM
Nov 28
48 °FSunny.9 mph82%29.65 "Hg10 mi
7:50 AM48 °FPassing clouds.9 mph82%29.65 "HgN/A
7:20 AM48 °FPassing clouds.10 mph82%29.65 "HgN/A
6:50 AM48 °FPassing clouds.12 mph82%29.65 "HgN/A
6:20 AM48 °FPassing clouds.12 mph82%29.65 "HgN/A
5:50 AM48 °FPassing clouds.14 mph87%29.65 "HgN/A
5:20 AM48 °FPassing clouds.14 mph87%29.65 "HgN/A
4:50 AM48 °FPassing clouds.12 mph87%29.65 "HgN/A
4:20 AM48 °FPassing clouds.8 mph87%29.65 "HgN/A
3:50 AM48 °FPassing clouds.10 mph87%29.65 "Hg6 mi
3:20 AM46 °FPassing clouds.8 mph93%29.65 "Hg5 mi
2:50 AM46 °FPassing clouds.7 mph93%29.65 "Hg5 mi
2:20 AM48 °FPassing clouds.7 mph94%29.65 "Hg6 mi
1:50 AM48 °FPassing clouds.7 mph94%29.65 "Hg6 mi
1:20 AM48 °FPassing clouds.7 mph94%29.65 "Hg5 mi
12:50 AM48 °FPassing clouds.7 mph94%29.68 "Hg6 mi
12:20 AM48 °FPassing clouds.9 mph94%29.68 "Hg6 mi
11:50 PM
Nov 27
48 °FPassing clouds.8 mph94%29.65 "HgN/A
11:20 PM48 °FPassing clouds.7 mph94%29.65 "HgN/A
10:50 PM48 °FPartly cloudy.6 mph94%29.65 "HgN/A
10:20 PM48 °FPassing clouds.7 mph94%29.65 "HgN/A
9:50 PM48 °FPartly cloudy.8 mph94%29.65 "HgN/A
9:20 PM48 °FPartly cloudy.8 mph94%29.65 "HgN/A
8:50 PM48 °FPassing clouds.7 mph94%29.65 "HgN/A
8:20 PM48 °FPartly cloudy.7 mph94%29.65 "HgN/A
7:50 PM48 °FPassing clouds.7 mph94%29.65 "HgN/A
7:20 PM48 °FPassing clouds.8 mph94%29.65 "HgN/A
6:50 PM48 °FPassing clouds.6 mph94%29.65 "HgN/A
6:20 PM48 °FPassing clouds.5 mph94%29.65 "HgN/A
5:50 PM48 °FPassing clouds.3 mph94%29.65 "HgN/A
5:20 PM48 °FPartly cloudy.5 mph94%29.68 "HgN/A
4:50 PM48 °FPartly cloudy.5 mph94%29.65 "HgN/A
4:20 PM48 °FBroken clouds.6 mph94%29.65 "HgN/A
3:50 PM48 °FBroken clouds.6 mph94%29.65 "Hg6 mi
3:20 PM48 °FDrizzle. Broken clouds.5 mph94%29.65 "Hg3 mi
2:50 PM48 °FLight rain. Broken clouds.6 mph94%29.68 "Hg4 mi
2:20 PM48 °FLight rain. Broken clouds.7 mph94%29.68 "Hg3 mi
1:50 PM48 °FLight rain. Partly sunny.6 mph94%29.68 "Hg4 mi
12:50 PM50 °FLight rain. Broken clouds.5 mph94%29.71 "Hg4 mi
12:20 PM48 °FLight rain. Scattered clouds.5 mph94%29.71 "Hg5 mi
11:50 AM50 °FScattered clouds.7 mph88%29.71 "HgN/A
11:20 AM50 °FScattered clouds.8 mph88%29.74 "HgN/A
10:50 AM50 °FPartly sunny.9 mph88%29.74 "HgN/A
10:20 AM48 °FScattered clouds.7 mph94%29.74 "Hg5 mi
9:50 AM48 °FPartly sunny.6 mph94%29.74 "Hg4 mi
9:20 AM48 °FPartly sunny.8 mph94%29.74 "Hg4 mi
Weather by CustomWeather, © 2014

See weather overviewHow to use our weather pages